Retour au catalogue

ASTROCAST-0403

ActifCommunicationsSSO
NORAD 55111·PAYLOAD·🇨🇭 Switzerland

Lancé Jan 3, 2023 depuis Cape Canaveral Space Force Station

Loading…

Prochains Passages (prochaines 24 heures)

TLE

FraisSource: Space-Track

Époque: Sep 14, 2026, 05:23 UTC

1 55111U 23001DG  26257.22497482  .00020717  00000-0  61263-3 0  9997
2 55111  97.5610 353.3903 0004107  24.5076 335.6361 15.34942467158203

Suivez ASTROCAST-0403 en temps réel avec AllMySat

Download on the App Store